Change the Weather History Date:

Saturday, January 25, 2014

  Actual Average Record
Temperature  
Mean Temperature 46 °F 41 °F  
Max Temperature 62 °F 50 °F 68 °F (2004)
Min Temperature 30 °F 33 °F 15 °F (1978)
Degree Days  
Heating Degree Days 19 24  
Month to date heating degree days 664 600  
Since 1 July heating degree days 1934 1792  
Cooling Degree Days 0 0  
Month to date cooling degree days 0 0  
Year to date cooling degree days 0 0  
Moisture  
Dew Point 18 °F    
Average Humidity 46    
Maximum Humidity 70    
Minimum Humidity 22    
Precipitation  
Precipitation 0.00 in 0.11 in 0.79 in (1976)
Month to date precipitation 2.34 2.76  
Year to date precipitation 2.34 2.76  
Snow  
Snow 0.00 in 0.10 in 3.00 in (1978)
Month to date snowfall T 1.3  
Since 1 July snowfall 1.3 1.8  
Snow Depth 0.00 in    
Sea Level Pressure  
Sea Level Pressure 30.03 in    
Wind  
Wind Speed 8 mph (West)    
Max Wind Speed 18 mph    
Max Gust Speed 23 mph    
Visibility 10 miles    
Events      
T = Trace of Precipitation, MM = Missing Value Source: NWS Daily Summary

Daily Weather History Graph

Daily Weather History Graph

Search for Another Location

Airport or City:

Trip Planner

Search our weather history database for the weather conditions in past years. The results will help you decide how hot, cold, wet, or windy it might be!

Date:

Astronomy

Jan. 25, 2014 Rise Set
Actual Time 7:11 AM CST 5:31 PM CST
Civil Twilight 6:44 AM CST 5:58 PM CST
Nautical Twilight 6:14 AM CST 6:28 PM CST
Astronomical Twilight 5:44 AM CST 6:58 PM CST
Moon 1:45 AM CST (1/25) 12:31 PM CST (1/25)
Length of Visible Light 11h 13m
Length of Day
10h 19m
Waning Crescent, 34% of the Moon is Illuminated
Jan 25
Waning Crescent
Jan 30
New
Feb 6
First Quarter
Feb 14
Full
Feb 22
Last Quarter

Hourly Weather History & Observations

Time (CST) Temp. Windchill Dew Point Humidity Pressure Visibility Wind Dir Wind Speed Gust Speed Precip Events Conditions
12:53 AM 32.0 °F 22.1 °F 3.9 °F 31% 30.14 in 10.0 mi SW 13.8 mph - N/A   Scattered Clouds
1:53 AM 32.0 °F 21.6 °F 5.0 °F 32% 30.11 in 10.0 mi SW 15.0 mph 23.0 mph N/A   Scattered Clouds
2:53 AM 32.0 °F 23.6 °F 7.0 °F 35% 30.10 in 10.0 mi WSW 10.4 mph 17.3 mph N/A   Scattered Clouds
3:53 AM 30.9 °F 20.7 °F 8.1 °F 38% 30.06 in 10.0 mi SW 13.8 mph - N/A   Partly Cloudy
4:53 AM 30.9 °F 22.2 °F 9.0 °F 40% 30.03 in 10.0 mi WSW 10.4 mph - N/A   Partly Cloudy
5:53 AM 32.0 °F 22.1 °F 10.0 °F 40% 30.01 in 10.0 mi WSW 13.8 mph 21.9 mph N/A   Mostly Cloudy
6:53 AM 30.9 °F 22.8 °F 10.9 °F 43% 30.04 in 10.0 mi WSW 9.2 mph - N/A   Partly Cloudy
7:53 AM 30.9 °F 22.8 °F 12.0 °F 46% 30.05 in 10.0 mi WSW 9.2 mph - N/A   Scattered Clouds
8:53 AM 35.1 °F 27.4 °F 12.0 °F 39% 30.05 in 10.0 mi WSW 10.4 mph - N/A   Scattered Clouds
9:53 AM 41.0 °F 35.8 °F 12.9 °F 32% 30.06 in 10.0 mi WSW 8.1 mph - N/A   Scattered Clouds
10:53 AM 48.0 °F - 12.9 °F 24% 30.06 in 10.0 mi WSW 9.2 mph - N/A   Partly Cloudy
11:53 AM 53.1 °F - 15.1 °F 22% 30.03 in 10.0 mi SW 6.9 mph - N/A   Scattered Clouds
12:53 PM 59.0 °F - 21.9 °F 24% 30.00 in 10.0 mi WNW 8.1 mph - N/A   Mostly Cloudy
1:53 PM 59.0 °F - 25.0 °F 27% 29.98 in 10.0 mi NW 10.4 mph - N/A   Mostly Cloudy
2:53 PM 61.0 °F - 25.0 °F 25% 29.96 in 10.0 mi WNW 8.1 mph - N/A   Mostly Cloudy
3:53 PM 62.1 °F - 26.1 °F 25% 29.96 in 10.0 mi NNW 5.8 mph - N/A   Mostly Cloudy
4:53 PM 59.0 °F - 26.1 °F 28% 29.98 in 10.0 mi NW 8.1 mph - N/A   Scattered Clouds
5:53 PM 54.0 °F - 26.1 °F 34% 30.00 in 10.0 mi Calm Calm - N/A   Scattered Clouds
6:53 PM 48.0 °F - 28.0 °F 46% 30.01 in 10.0 mi Calm Calm - N/A   Scattered Clouds
7:53 PM 42.1 °F - 27.0 °F 55% 30.02 in 10.0 mi Calm Calm - N/A   Scattered Clouds
8:53 PM 43.0 °F - 28.0 °F 56% 30.01 in 10.0 mi Calm Calm - N/A   Partly Cloudy
9:53 PM 42.1 °F 40.2 °F 28.0 °F 58% 30.01 in 10.0 mi NW 3.5 mph - N/A   Partly Cloudy
10:53 PM 37.9 °F - 28.0 °F 68% 30.01 in 10.0 mi Calm Calm - N/A   Partly Cloudy
11:53 PM 39.0 °F 34.8 °F 28.0 °F 65% 29.99 in 10.0 mi West 5.8 mph - N/A   Partly Cloudy